Simultaneous Nadir Overpasses (SNOs) Predictions

Prediction of SNOs between GOES-16 and AQUA Satellite Orbit:

Table of predicted SNOs for the next 14.0 days since TLE Epoch: 4/27/2024
Index Date Time (GOES-16) GOES-16 Lat,Lon AQUA Lat,Lon Distance(km) Time Diff (sec)
1 04/28/2024 18:56:00 0.02, -75.21 0.68, -72.02 362.66 80
2 04/29/2024 07:16:14 -0.02, -75.21 0.33, -76.92 193.62 80
3 05/01/2024 06:57:21 -0.01, -75.22 -0.52, -72.95 258.12 80
4 05/01/2024 19:17:42 0.01, -75.22 -0.55, -77.88 301.88 80
5 05/03/2024 19:04:07 0.01, -75.24 0.30, -73.90 151.77 80
6 05/04/2024 07:24:19 -0.00, -75.24 0.77, -78.79 403.39 80
7 05/06/2024 07:05:22 -0.01, -75.27 -0.08, -74.81 51.89 80
8 05/08/2024 19:09:24 0.01, -75.30 -0.07, -75.75 51.01 80
9 05/10/2024 18:55:43 0.01, -75.33 0.76, -71.75 406.72 80
